Hourly Data Report for March 21, 2012

BAGOTVILLE A
QUEBEC

48°20'00.000" N
71°00'00.000" W
159.10 m
7060400
71727
YBG

Download Data

Hourly Data (March 2012)
Hourly Data Report for March 21, 2012
TIME
LST
Temp Definition
°C
Dew Point Definition
°C
Rel Hum Definition
%
Precip. Amount Definition
mm

Wind Dir Definition
10's deg

Wind Spd Definition
km/h
Visibility Definition
km
Stn Press Definition
kPa
Hmdx Definition


Wind Chill Definition


Weather Definition


00:00 9.0 7.1 88     0 24.1 100.14     Mainly Clear
01:00 7.7 4.6 81   9 6 24.1 100.16     Mainly Clear
02:00 6.6 4.5 86   12 6 24.1 100.15     Mainly Clear
03:00 9.0 6.7 85   11 6 24.1 100.12     Clear
04:00 8.6 5.8 83   13 6 24.1 100.15     Mainly Clear
05:00 8.6 6.7 88   15 4 24.1 100.18     Mainly Clear
06:00 6.0 3.9 86   13 4 40.2 100.20     Mainly Clear
07:00 9.1 6.8 86     0 32.2 100.19     Mainly Clear
08:00 12.9 8.1 73   11 4 40.2 100.15     Mainly Clear
09:00 13.7 7.9 68   10 7 40.2 100.12     Mainly Clear
10:00 16.8 9.1 60   9 9 40.2 100.06     Clear
11:00 19.2 10.8 58   9 7 40.2 100.00     Clear
12:00 21.0 10.8 52   9 7 40.2 99.95     Clear
13:00 22.2 10.9 49   36 7 40.2 99.89     Mainly Clear
14:00 23.1 12.1 50   36 7 40.2 99.85 25   Mainly Clear
15:00 24.7 13.7 50   28 19 40.2 99.80 28   Mainly Clear
16:00 24.0 15.9 61   27 20 40.2 99.77 29   Mainly Clear
17:00 22.4 15.7 66   26 17 40.2 99.77 27   Clear
18:00 18.5 9.5 56   25 13 40.2 99.76     Mainly Clear
19:00 17.8 9.5 58   24 15 24.1 99.75     Mainly Clear
20:00 18.4 9.6 56   24 19 24.1 99.73     Mainly Clear
21:00 18.2 10.0 59   25 24 24.1 99.71     Clear
22:00 17.5 10.7 64   24 17 24.1 99.68     Clear
23:00 13.5 8.2 70   10 11 24.1 99.67     Clear

Notes on Data Quality.

Legend

  • E = Estimated
  • M = Missing
  • NA = Not Available*
  • [empty] = Indicates an unobserved value
Date modified: